Date String (YYYY-MM-DD hh:mm:ss) UTC,Instrument flags,absolute air pressure of the measurement (hPa),sample flow rate (lpm),inlet stack bypass flow (lpm),air temperature of the measurement (°C),ambient temperature measured by the external sensor (°C),aerosol sample conditioner tube jacket temperature (°C),OPC LED temperature (°C),internal box temperature (°C),relative humidity of the measurement (%),span deviation,mass concentration of particles derived from Lorenz-Mie calculation of OPC scattering (μg/m³),mass concentration of particles derived from Lorenz-Mie calculation of OPC scattering (μg/m³),mass concentration of particles derived from Lorenz-Mie calculation of OPC scattering (μg/m³)
DateTimeUTC,F1_M11,P_M11,Q1_M11,Q2_M11,T1_M11,T2_M11,T3_M11,T4_M11,T5_M11,U1_M11,ZSPAN_M11,X0_M11,X2_M11,X1_M11
2024-02-20 01:00:00,SystemResetWarning,0827.7,5.00,000.00,024.2,023.6,000.0,032.6,026.0,09.9,0000.0,0002.86,0001.03,0000.71
2024-02-20 01:01:00,SystemResetWarning,0827.7,4.99,000.00,024.2,023.6,000.0,032.6,026.0,10.0,0000.0,0002.83,0001.04,0000.73
2024-02-20 01:02:00,SystemResetWarning,0827.7,5.01,000.00,024.2,023.6,000.0,032.6,026.0,10.0,0000.0,0002.90,0001.07,0000.75
2024-02-20 01:03:00,SystemResetWarning,0827.7,5.00,000.00,024.2,023.6,000.0,032.6,026.0,09.9,0000.0,0002.96,0001.13,0000.79
2024-02-20 01:04:00,SystemResetWarning,0827.8,5.00,000.00,024.2,023.6,000.0,032.6,026.1,09.8,0000.0,0004.93,0001.27,0000.86
2024-02-20 01:05:00,SystemResetWarning,0827.8,5.01,000.00,024.2,023.6,000.0,032.6,026.1,09.7,0000.0,0006.64,0001.38,0000.96
2024-02-20 01:06:00,SystemResetWarning,0827.8,5.00,000.00,024.2,023.6,000.0,032.6,026.0,09.7,0000.0,0007.78,0001.49,0001.04
2024-02-20 01:07:00,SystemResetWarning,0827.8,5.00,000.00,024.2,023.6,000.0,032.6,026.0,09.6,0000.0,0008.07,0001.57,0001.11
2024-02-20 01:08:00,SystemResetWarning,0827.7,5.00,000.00,024.2,023.7,000.0,032.6,026.1,09.6,0000.0,0008.05,0001.60,0001.14
2024-02-20 01:09:00,SystemResetWarning,0827.8,4.99,000.00,024.2,023.7,000.0,032.6,026.1,09.5,0000.0,0008.08,0001.63,0001.17
2024-02-20 01:10:00,SystemResetWarning,0827.8,4.99,000.00,024.2,023.7,000.0,032.7,026.1,09.3,0000.0,0008.66,0001.64,0001.19
2024-02-20 01:11:00,SystemResetWarning,0827.8,5.00,000.00,024.2,023.7,000.0,032.7,026.1,09.4,0000.0,0008.94,0001.67,0001.22
2024-02-20 01:12:00,SystemResetWarning,0827.8,5.01,000.00,024.2,023.7,000.0,032.7,026.1,09.4,0000.0,0009.44,0001.74,0001.26
2024-02-20 01:13:00,SystemResetWarning,0827.8,5.00,000.00,024.2,023.7,000.0,032.7,026.1,09.5,0000.0,0009.51,0001.81,0001.30
2024-02-20 01:14:00,SystemResetWarning,0827.9,4.99,000.00,024.3,023.7,000.0,032.7,026.1,09.5,0000.0,0009.57,0001.82,0001.32
2024-02-20 01:15:00,SystemResetWarning,0828.0,4.99,000.00,024.3,023.7,000.0,032.7,026.2,09.5,0000.0,0008.94,0001.78,0001.31
2024-02-20 01:16:00,SystemResetWarning,0828.1,5.01,000.00,024.3,023.7,000.0,032.7,026.2,09.5,0000.0,0008.05,0001.73,0001.26
2024-02-20 01:17:00,SystemResetWarning,0828.0,5.02,000.00,024.3,023.7,000.0,032.7,026.2,09.6,0000.0,0007.19,0001.71,0001.23
2024-02-20 01:18:00,SystemResetWarning,0828.0,5.00,000.00,024.3,023.7,000.0,032.7,026.2,09.7,0000.0,0007.59,0001.71,0001.21
2024-02-20 01:19:00,SystemResetWarning,0828.0,5.00,000.00,024.3,023.7,000.0,032.7,026.2,09.6,0000.0,0006.94,0001.67,0001.19
2024-02-20 01:20:00,SystemResetWarning,0828.1,5.00,000.00,024.3,023.7,000.0,032.7,026.2,09.6,0000.0,0006.77,0001.62,0001.16
2024-02-20 01:21:00,SystemResetWarning,0828.1,5.00,000.00,024.3,023.7,000.0,032.7,026.1,09.8,0000.0,0006.03,0001.61,0001.14
2024-02-20 01:22:00,SystemResetWarning,0828.1,4.99,000.00,024.3,023.7,000.0,032.7,026.1,09.8,0000.0,0005.26,0001.58,0001.12
2024-02-20 01:23:00,SystemResetWarning,0828.1,5.00,000.00,024.3,023.7,000.0,032.7,026.1,09.9,0000.0,0005.44,0001.59,0001.10
2024-02-20 01:24:00,SystemResetWarning,0828.1,5.02,000.00,024.3,023.6,000.0,032.7,026.1,10.3,0000.0,0005.36,0001.53,0001.08
2024-02-20 01:25:00,SystemResetWarning,0828.1,5.00,000.00,024.3,023.6,000.0,032.7,026.1,10.7,0000.0,0005.71,0001.54,0001.07
2024-02-20 01:26:00,SystemResetWarning,0828.1,5.00,000.00,024.2,023.6,000.0,032.7,026.1,10.7,0000.0,0005.93,0001.55,0001.08
2024-02-20 01:27:00,SystemResetWarning,0827.9,5.00,000.00,024.2,023.6,000.0,032.7,026.0,10.6,0000.0,0006.25,0001.57,0001.09
2024-02-20 01:28:00,SystemResetWarning,0827.9,5.00,000.00,024.2,023.6,000.0,032.7,026.0,10.4,0000.0,0006.03,0001.58,0001.11
2024-02-20 01:29:00,SystemResetWarning,0827.9,4.99,000.00,024.2,023.6,000.0,032.7,026.0,10.2,0000.0,0004.85,0001.57,0001.12
2024-02-20 01:30:00,SystemResetWarning,0827.8,5.00,000.00,024.2,023.5,000.0,032.7,026.0,10.2,0000.0,0005.05,0001.62,0001.14
2024-02-20 01:31:00,SystemResetWarning,0827.9,5.00,000.00,024.2,023.5,000.0,032.7,026.0,10.3,0000.0,0005.99,0001.64,0001.17
2024-02-20 01:32:00,SystemResetWarning,0827.9,5.01,000.00,024.2,023.5,000.0,032.7,026.0,10.4,0000.0,0005.99,0001.66,0001.19
2024-02-20 01:33:00,SystemResetWarning,0828.0,5.00,000.00,024.2,023.5,000.0,032.7,026.0,10.2,0000.0,0006.67,0001.72,0001.23
2024-02-20 01:34:00,SystemResetWarning,0828.0,5.00,000.00,024.2,023.5,000.0,032.7,025.9,10.2,0000.0,0006.20,0001.75,0001.27
2024-02-20 01:35:00,SystemResetWarning,0828.0,4.99,000.00,024.1,023.5,000.0,032.7,026.0,09.6,0000.0,0006.19,0001.82,0001.31
2024-02-20 01:36:00,SystemResetWarning,0828.0,5.00,000.00,024.1,023.5,000.0,032.7,026.0,09.6,0000.0,0006.46,0001.91,0001.33
2024-02-20 01:37:00,SystemResetWarning,0828.0,5.01,000.00,024.1,023.5,000.0,032.7,026.0,09.7,0000.0,0007.05,0001.97,0001.35
2024-02-20 01:38:00,SystemResetWarning,0827.9,5.00,000.00,024.1,023.5,000.0,032.6,025.9,10.1,0000.0,0007.18,0002.00,0001.35
2024-02-20 01:39:00,SystemResetWarning,0827.8,5.00,000.00,024.1,023.5,000.0,032.6,025.9,10.4,0000.0,0007.36,0002.04,0001.37
2024-02-20 01:40:00,SystemResetWarning,0827.8,5.00,000.00,024.1,023.5,000.0,032.6,025.9,10.5,0000.0,0007.44,0002.08,0001.39
2024-02-20 01:41:00,SystemResetWarning,0827.9,4.99,000.00,024.1,023.5,000.0,032.6,025.9,10.5,0000.0,0007.51,0002.14,0001.41
2024-02-20 01:42:00,SystemResetWarning,0827.8,4.99,000.00,024.1,023.5,000.0,032.6,026.0,10.4,0000.0,0007.03,0002.18,0001.42
2024-02-20 01:43:00,SystemResetWarning,0827.9,4.99,000.00,024.1,023.5,000.0,032.6,026.0,10.5,0000.0,0007.38,0002.23,0001.42
2024-02-20 01:44:00,SystemResetWarning,0828.0,5.01,000.00,024.1,023.5,000.0,032.6,026.0,10.6,0000.0,0007.41,0002.22,0001.41
2024-02-20 01:45:00,SystemResetWarning,0828.0,5.01,000.00,024.1,023.5,000.0,032.6,026.0,10.6,0000.0,0006.96,0002.18,0001.38
2024-02-20 01:46:00,SystemResetWarning,0828.1,5.00,000.00,024.1,023.5,000.0,032.6,026.0,10.7,0000.0,0006.81,0002.14,0001.36
2024-02-20 01:47:00,SystemResetWarning,0828.1,5.00,000.00,024.1,023.5,000.0,032.6,026.0,10.7,0000.0,0006.27,0002.08,0001.35
2024-02-20 01:48:00,SystemResetWarning,0828.0,5.00,000.00,024.1,023.5,000.0,032.6,026.0,10.7,0000.0,0005.54,0002.02,0001.35
2024-02-20 01:49:00,SystemResetWarning,0828.0,4.99,000.00,024.1,023.5,000.0,032.6,026.0,10.8,0000.0,0005.18,0002.01,0001.36
2024-02-20 01:50:00,SystemResetWarning,0827.9,4.99,000.00,024.1,023.5,000.0,032.6,026.0,10.8,0000.0,0005.80,0001.99,0001.36
2024-02-20 01:51:00,SystemResetWarning,0827.8,5.00,000.00,024.1,023.5,000.0,032.6,026.0,10.9,0000.0,0006.13,0001.97,0001.35
2024-02-20 01:52:00,SystemResetWarning,0827.8,5.00,000.00,024.1,023.5,000.0,032.6,026.0,10.9,0000.0,0005.82,0001.90,0001.32
2024-02-20 01:53:00,SystemResetWarning,0828.0,5.01,000.00,024.1,023.5,000.0,032.6,026.0,11.0,0000.0,0005.97,0001.86,0001.31
2024-02-20 01:54:00,SystemResetWarning,0827.9,5.00,000.00,024.1,023.5,000.0,032.6,026.0,11.0,0000.0,0006.21,0001.86,0001.31
2024-02-20 01:55:00,SystemResetWarning,0827.9,5.00,000.00,024.1,023.5,000.0,032.6,026.0,11.0,0000.0,0007.35,0001.86,0001.32
2024-02-20 01:56:00,SystemResetWarning,0827.8,4.99,000.00,024.1,023.5,000.0,032.6,026.0,11.0,0000.0,0007.34,0001.89,0001.34
2024-02-20 01:57:00,SystemResetWarning,0827.8,4.99,000.00,024.1,023.5,000.0,032.6,026.0,11.1,0000.0,0007.46,0001.95,0001.36
2024-02-20 01:58:00,SystemResetWarning,0827.9,5.01,000.00,024.1,023.5,000.0,032.6,026.0,11.1,0000.0,0007.40,0001.92,0001.36
2024-02-20 01:59:00,SystemResetWarning,0828.0,5.00,000.00,024.1,023.5,000.0,032.6,026.0,11.1,0000.0,0007.24,0001.88,0001.35
